Terminal Aerodrome Forecast
Issued by NWS Jackson, KY

Home | Current Version | Previous Version | Text Only | Print | Product List | Glossary On
Versions: 1 2 3 4 5 6 7 8 9 10 11 12 13 14 15 16 17 18 19 20 21 22 23
087
FTUS43 KJKL 060540
TAFLOZ
TAF
KLOZ 060540Z 0606/0706 08005KT P6SM OVC035
     FM060800 10005KT P6SM -RA SCT015 OVC030
     FM060900 12006KT 2SM RA OVC010
     FM061100 14007KT 2SM RA OVC008
     FM062100 28010G16KT P6SM OVC007=

USA.gov is the U.S. government's official web portal to all federal, state and local government web resources and services.